Back to catalog

STARLINK-34824

AliveCommunicationsVLEO
NORAD 65042·PAYLOAD·🇺🇸 United States

Launched Jul 30, 2025 from Cape Canaveral Space Force Station

Loading…

Next Passes (next 24 hours)

TLE

FreshSource: CelesTrak SupGP

Epoch: Sep 14, 2026, 15:20 UTC

1 65042C 25161AD  26257.63937500  .00036582  00000+0  10802-2 0  2570
2 65042  53.1564 132.9905 0001208  88.0381 106.4752 15.34391747    11

Track STARLINK-34824 in real time with AllMySat

Download on the App Store